Falls City, NE

4:39 AM CST on February 26, 2017 (GMT -0600)
Brenner

Weather History for KFNB - August, 2014

Change the Weather History Date:

Saturday, August 23, 2014

  Actual Average Record
Temperature  
Mean Temperature 82 °F -  
Max Temperature 93 °F 87 °F 101 °F (1988)
Min Temperature 72 °F 62 °F 45 °F (1966)
Cooling Degree Days 18    
Growing Degree Days 32 (Base 50)    
Moisture  
Dew Point 72 °F    
Average Humidity 73    
Maximum Humidity 94    
Minimum Humidity 50    
Precipitation  
Precipitation 0.01 in - - ()
Sea Level Pressure  
Sea Level Pressure 29.82 in    
Wind  
Wind Speed 8 mph (SE)    
Max Wind Speed 13 mph    
Max Gust Speed 22 mph    
Visibility 10 miles    
Events      
Averages and records for this station are not official NWS values.
T = Trace of Precipitation, MM = Missing Value Source: NWS Daily Summary

Daily Weather History Graph

Daily Weather History Graph

Search for Another Location

Airport or City:

Trip Planner

Search our weather history database for the weather conditions in past years. The results will help you decide how hot, cold, wet, or windy it might be!

Date:

Astronomy

Aug. 23, 2014 Rise Set
Actual Time 6:41 AM CDT 8:07 PM CDT
Civil Twilight 6:13 AM CDT 8:36 PM CDT
Nautical Twilight 5:38 AM CDT 9:10 PM CDT
Astronomical Twilight 5:02 AM CDT 9:45 PM CDT
Moon 4:58 AM CDT (8/23) 6:52 PM CDT (8/23)
Length of Visible Light 14h 22m
Length of Day
13h 26m
Waning Crescent, 3% of the Moon is Illuminated
Aug 23
Waning Crescent
Aug 25
New
Sep 2
First Quarter
Sep 8
Full
Sep 15
Last Quarter

Hourly Weather History & Observations

Time (CDT) Temp. Heat Index Dew Point Humidity Pressure Visibility Wind Dir Wind Speed Gust Speed Precip Events Conditions
12:53 AM 75.0 °F - 73.0 °F 94% 29.86 in 10.0 mi SE 5.8 mph - N/A   Scattered Clouds
1:53 AM 75.9 °F - 73.9 °F 94% 29.85 in 7.0 mi ESE 5.8 mph - N/A   Mostly Cloudy
2:53 AM 77.0 °F - 75.0 °F 94% 29.83 in 9.0 mi SE 5.8 mph - N/A   Overcast
4:36 AM 75.0 °F - 72.0 °F 90% 29.90 in 10.0 mi North 11.5 mph 21.9 mph N/A   Scattered Clouds
4:53 AM 73.9 °F - 71.1 °F 91% 29.87 in 10.0 mi North 6.9 mph - N/A   Scattered Clouds
5:53 AM 73.0 °F - 70.0 °F 90% 29.87 in 10.0 mi NE 4.6 mph - 0.01 in   Overcast
6:53 AM 72.0 °F - 70.0 °F 93% 29.87 in 10.0 mi ENE 6.9 mph - N/A   Scattered Clouds
7:53 AM 72.0 °F - 70.0 °F 93% 29.87 in 10.0 mi East 8.1 mph - N/A   Clear
8:53 AM 75.0 °F - 71.1 °F 87% 29.86 in 10.0 mi ESE 10.4 mph - N/A   Clear
9:53 AM 80.6 °F 85.4 °F 73.4 °F 79% 29.88 in 10.0 mi ESE 8.1 mph - N/A   Clear
10:53 AM 84.9 °F 94.1 °F 75.9 °F 74% 29.84 in 10.0 mi SSE 11.5 mph - N/A   Partly Cloudy
11:53 AM 87.1 °F 93.6 °F 72.0 °F 61% 29.84 in 10.0 mi South 12.7 mph - N/A   Clear
12:53 PM 90.0 °F 95.4 °F 70.0 °F 52% 29.83 in 10.0 mi South 11.5 mph - N/A   Clear
1:53 PM 91.0 °F 98.2 °F 72.0 °F 53% 29.81 in 10.0 mi SE 10.4 mph - N/A   Clear
2:53 PM 93.0 °F 100.7 °F 72.0 °F 50% 29.80 in 10.0 mi SSE 12.7 mph 18.4 mph N/A   Clear
3:53 PM 93.2 °F 102.4 °F 73.4 °F 52% 29.82 in 10.0 mi SE 12.7 mph - N/A   Clear
4:53 PM 93.0 °F 103.2 °F 73.9 °F 54% 29.76 in 10.0 mi SE 10.4 mph - N/A   Clear
5:53 PM 91.9 °F 103.2 °F 75.0 °F 58% 29.75 in 10.0 mi ESE 8.1 mph - N/A   Clear
6:53 PM 89.1 °F 100.2 °F 75.9 °F 65% 29.75 in 10.0 mi SE 6.9 mph - N/A   Clear
7:53 PM 84.0 °F 91.2 °F 73.9 °F 72% 29.75 in 10.0 mi SE 4.6 mph - N/A   Clear
8:53 PM 81.0 °F 85.2 °F 72.0 °F 74% 29.76 in 10.0 mi SSE 6.9 mph - N/A   Clear
9:53 PM 82.4 °F 85.4 °F 68.0 °F 62% 29.80 in 10.0 mi South 8.1 mph - N/A   Clear
10:53 PM 82.0 °F 83.4 °F 64.0 °F 54% 29.78 in 10.0 mi South 9.2 mph - N/A   Clear
11:53 PM 80.1 °F 81.5 °F 63.0 °F 56% 29.79 in 10.0 mi South 10.4 mph - N/A   Clear